Location: Unspecified
(0.0000°N, 0.0000°E)
Time: 12:10:11
(UTC+00:00)

STARLINK 1065 - Pass Details

Date: 12 December 2019
Orbit: 451 x 454 km, 53.0° (Epoch: 11 December)

Event Time Altitude Azimuth Distance (km) Brightness Sun altitude
Rises 09:25:15 0° 266° (W) 2,443 6.6 47.2°
Enters shadow 10:09:41 -70° 100° (E) 12,484 10.1 55.8°
Exits shadow 10:44:33 -39° 310° (NW) 8,754 9.1 61.5°
Reaches altitude 10° 19:28:54 10° 201° (SSW) 1,574 6.5 -21.8°
